Time,TemperatureF,DewpointF,PressureIn,WindDirection,WindDirectionDegrees,WindSpeedMPH,WindSpeedGustMPH,Humidity,HourlyPrecipIn,Conditions,Clouds,dailyrainin,SoftwareType,DateUTC
2013-09-01 00:08:00,77.3,75.0,29.86,SSE,167,0.0,1.0,92,0.00,,,0.00,weatherlink.com 1.10,2013-09-01 05:08:00,
2013-09-01 00:24:00,77.2,75.0,29.86,SSE,167,0.0,1.0,93,0.00,,,0.00,weatherlink.com 1.10,2013-09-01 05:24:00,
2013-09-01 00:39:00,76.8,75.0,29.86,SSE,167,0.0,1.0,93,0.00,,,0.00,weatherlink.com 1.10,2013-09-01 05:39:00,
2013-09-01 00:54:00,76.4,75.0,29.86,SSE,167,1.0,2.0,94,0.00,,,0.00,weatherlink.com 1.10,2013-09-01 05:54:00,
2013-09-01 01:09:00,76.5,75.0,29.86,SSE,167,2.0,3.0,95,0.00,,,0.00,weatherlink.com 1.10,2013-09-01 06:09:00,
2013-09-01 01:24:00,76.8,75.0,29.86,SSE,167,0.0,2.0,95,0.00,,,0.00,weatherlink.com 1.10,2013-09-01 06:24:00,
2013-09-01 01:39:00,76.6,75.0,29.86,SSE,167,0.0,2.0,95,0.00,,,0.00,weatherlink.com 1.10,2013-09-01 06:39:00,
2013-09-01 01:54:00,76.5,75.0,29.86,South,182,0.0,2.0,95,0.00,,,0.00,weatherlink.com 1.10,2013-09-01 06:54:00,
2013-09-01 02:09:00,76.5,75.0,29.86,South,182,0.0,1.0,95,0.00,,,0.00,weatherlink.com 1.10,2013-09-01 07:09:00,
2013-09-01 02:24:00,76.2,75.0,29.86,South,182,0.0,0.0,95,0.00,,,0.00,weatherlink.com 1.10,2013-09-01 07:24:00,
2013-09-01 02:39:00,76.0,75.0,29.86,South,182,0.0,0.0,95,0.00,,,0.00,weatherlink.com 1.10,2013-09-01 07:39:00,
2013-09-01 02:54:00,75.9,75.0,29.86,South,182,0.0,0.0,96,0.00,,,0.00,weatherlink.com 1.10,2013-09-01 07:54:00,
2013-09-01 03:09:00,75.4,74.0,29.86,South,182,0.0,0.0,95,0.00,,,0.00,weatherlink.com 1.10,2013-09-01 08:09:00,
2013-09-01 03:24:00,75.1,74.0,29.86,South,182,0.0,0.0,96,0.00,,,0.00,weatherlink.com 1.10,2013-09-01 08:24:00,
2013-09-01 03:39:00,74.9,74.0,29.86,South,182,0.0,0.0,96,0.00,,,0.00,weatherlink.com 1.10,2013-09-01 08:39:00,
2013-09-01 03:54:00,74.7,74.0,29.85,South,182,0.0,0.0,96,0.00,,,0.00,weatherlink.com 1.10,2013-09-01 08:54:00,
2013-09-01 04:09:00,74.3,73.0,29.85,South,182,0.0,0.0,96,0.00,,,0.00,weatherlink.com 1.10,2013-09-01 09:09:00,
2013-09-01 04:24:00,74.1,73.0,29.86,South,182,0.0,0.0,96,0.00,,,0.00,weatherlink.com 1.10,2013-09-01 09:24:00,
2013-09-01 04:39:00,74.0,73.0,29.86,South,182,0.0,0.0,97,0.00,,,0.00,weatherlink.com 1.10,2013-09-01 09:39:00,
2013-09-01 04:54:00,73.9,73.0,29.86,South,182,0.0,0.0,97,0.00,,,0.00,weatherlink.com 1.10,2013-09-01 09:54:00,
2013-09-01 05:09:00,74.2,73.0,29.86,South,182,0.0,0.0,97,0.00,,,0.00,weatherlink.com 1.10,2013-09-01 10:09:00,
2013-09-01 05:24:00,74.2,73.0,29.87,South,182,0.0,0.0,97,0.00,,,0.00,weatherlink.com 1.10,2013-09-01 10:24:00,
2013-09-01 05:39:00,73.8,73.0,29.86,South,182,0.0,0.0,97,0.00,,,0.00,weatherlink.com 1.10,2013-09-01 10:39:00,
2013-09-01 05:54:00,73.6,73.0,29.87,South,182,0.0,0.0,97,0.00,,,0.00,weatherlink.com 1.10,2013-09-01 10:54:00,
2013-09-01 06:09:00,73.3,72.0,29.87,South,182,0.0,0.0,97,0.00,,,0.00,weatherlink.com 1.10,2013-09-01 11:09:00,
2013-09-01 06:24:00,73.2,73.0,29.88,South,182,0.0,0.0,98,0.00,,,0.00,weatherlink.com 1.10,2013-09-01 11:24:00,
2013-09-01 06:39:00,72.9,72.0,29.88,South,182,0.0,0.0,97,0.00,,,0.00,weatherlink.com 1.10,2013-09-01 11:39:00,
2013-09-01 06:54:00,72.9,72.0,29.89,South,182,0.0,0.0,97,0.00,,,0.00,weatherlink.com 1.10,2013-09-01 11:54:00,
2013-09-01 07:09:00,73.1,73.0,29.89,South,182,0.0,0.0,98,0.00,,,0.00,weatherlink.com 1.10,2013-09-01 12:09:00,
2013-09-01 07:24:00,74.2,74.0,29.89,South,182,0.0,0.0,98,0.00,,,0.00,weatherlink.com 1.10,2013-09-01 12:24:00,
2013-09-01 07:39:00,75.4,75.0,29.89,South,182,0.0,0.0,98,0.00,,,0.00,weatherlink.com 1.10,2013-09-01 12:39:00,
2013-09-01 07:54:00,76.5,76.0,29.90,South,182,0.0,1.0,98,0.00,,,0.00,weatherlink.com 1.10,2013-09-01 12:54:00,
2013-09-01 08:09:00,77.5,77.0,29.90,South,186,0.0,1.0,98,0.00,,,0.00,weatherlink.com 1.10,2013-09-01 13:09:00,
2013-09-01 08:24:00,78.7,78.0,29.90,WSW,238,2.0,4.0,97,0.00,,,0.00,weatherlink.com 1.10,2013-09-01 13:24:00,
2013-09-01 08:39:00,80.1,78.0,29.91,WSW,255,0.0,4.0,94,0.00,,,0.00,weatherlink.com 1.10,2013-09-01 13:39:00,
2013-09-01 08:54:00,81.5,78.0,29.91,SW,221,2.0,6.0,89,0.00,,,0.00,weatherlink.com 1.10,2013-09-01 13:54:00,
2013-09-01 09:09:00,83.2,79.0,29.91,West,271,1.0,5.0,88,0.00,,,0.00,weatherlink.com 1.10,2013-09-01 14:09:00,
2013-09-01 09:24:00,84.3,79.0,29.91,WSW,242,2.0,7.0,83,0.00,,,0.00,weatherlink.com 1.10,2013-09-01 14:24:00,
2013-09-01 09:39:00,85.1,79.0,29.91,SW,220,6.0,8.0,82,0.00,,,0.00,weatherlink.com 1.10,2013-09-01 14:39:00,
2013-09-01 09:55:00,85.4,79.0,29.91,WSW,256,1.0,9.0,80,0.00,,,0.00,weatherlink.com 1.10,2013-09-01 14:55:00,
2013-09-01 10:10:00,86.8,79.0,29.91,West,269,2.0,8.0,77,0.00,,,0.00,weatherlink.com 1.10,2013-09-01 15:10:00,
2013-09-01 10:25:00,86.5,78.0,29.91,West,271,2.0,10.0,75,0.00,,,0.00,weatherlink.com 1.10,2013-09-01 15:25:00,
2013-09-01 10:40:00,85.9,77.0,29.92,SW,222,0.0,4.0,75,0.00,,,0.00,weatherlink.com 1.10,2013-09-01 15:40:00,
2013-09-01 10:55:00,87.9,77.0,29.92,SW,230,2.0,6.0,69,0.00,,,0.00,weatherlink.com 1.10,2013-09-01 15:55:00,
2013-09-01 11:10:00,89.1,77.0,29.91,SSW,203,1.0,8.0,68,0.00,,,0.00,weatherlink.com 1.10,2013-09-01 16:10:00,
2013-09-01 11:25:00,90.7,76.0,29.91,SW,232,2.0,5.0,63,0.00,,,0.00,weatherlink.com 1.10,2013-09-01 16:25:00,
2013-09-01 11:40:00,90.3,76.0,29.91,West,273,2.0,5.0,62,0.00,,,0.00,weatherlink.com 1.10,2013-09-01 16:40:00,
2013-09-01 11:55:00,90.4,77.0,29.91,WSW,248,3.0,7.0,65,0.00,,,0.00,weatherlink.com 1.10,2013-09-01 16:55:00,
2013-09-01 12:10:00,90.1,78.0,29.90,NW,311,4.0,7.0,67,0.00,,,0.00,weatherlink.com 1.10,2013-09-01 17:10:00,
2013-09-01 12:25:00,89.4,77.0,29.90,SSW,210,0.0,4.0,66,0.00,,,0.00,weatherlink.com 1.10,2013-09-01 17:25:00,
2013-09-01 12:40:00,91.4,75.0,29.89,WSW,237,5.0,6.0,58,0.00,,,0.00,weatherlink.com 1.10,2013-09-01 17:40:00,
2013-09-01 12:55:00,92.2,78.0,29.89,SSW,198,1.0,6.0,63,0.00,,,0.00,weatherlink.com 1.10,2013-09-01 17:55:00,
2013-09-01 13:10:00,91.5,76.0,29.89,SW,224,4.0,10.0,60,0.00,,,0.00,weatherlink.com 1.10,2013-09-01 18:10:00,
2013-09-01 13:25:00,93.1,77.0,29.88,South,170,0.0,5.0,60,0.00,,,0.00,weatherlink.com 1.10,2013-09-01 18:25:00,
2013-09-01 13:40:00,93.0,77.0,29.88,SW,227,5.0,7.0,60,0.00,,,0.00,weatherlink.com 1.10,2013-09-01 18:40:00,
2013-09-01 13:55:00,92.9,76.0,29.87,SW,228,0.0,5.0,59,0.00,,,0.00,weatherlink.com 1.10,2013-09-01 18:55:00,
2013-09-01 14:10:00,92.9,76.0,29.87,WSW,252,2.0,9.0,58,0.00,,,0.00,weatherlink.com 1.10,2013-09-01 19:10:00,
2013-09-01 14:25:00,93.7,76.0,29.86,SW,229,2.0,9.0,57,0.00,,,0.00,weatherlink.com 1.10,2013-09-01 19:25:00,
2013-09-01 14:40:00,93.5,76.0,29.86,WSW,242,2.0,8.0,57,0.00,,,0.00,weatherlink.com 1.10,2013-09-01 19:40:00,
2013-09-01 14:55:00,95.2,77.0,29.85,West,268,3.0,6.0,55,0.00,,,0.00,weatherlink.com 1.10,2013-09-01 19:55:00,
2013-09-01 15:10:00,95.1,76.0,29.85,SSE,161,0.0,6.0,55,0.00,,,0.00,weatherlink.com 1.10,2013-09-01 20:10:00,
2013-09-01 15:25:00,93.9,77.0,29.84,SSE,152,2.0,7.0,58,0.00,,,0.00,weatherlink.com 1.10,2013-09-01 20:25:00,
2013-09-01 15:40:00,94.7,77.0,29.84,SW,232,2.0,8.0,57,0.00,,,0.00,weatherlink.com 1.10,2013-09-01 20:40:00,
2013-09-01 15:55:00,94.2,76.0,29.84,SSE,147,1.0,6.0,56,0.00,,,0.00,weatherlink.com 1.10,2013-09-01 20:55:00,
2013-09-01 16:10:00,93.8,76.0,29.83,SSE,165,3.0,6.0,57,0.00,,,0.00,weatherlink.com 1.10,2013-09-01 21:10:00,
2013-09-01 16:25:00,92.9,75.0,29.83,WSW,244,1.0,10.0,56,0.00,,,0.00,weatherlink.com 1.10,2013-09-01 21:25:00,
2013-09-01 16:40:00,93.9,74.0,29.82,South,178,5.0,7.0,53,0.00,,,0.00,weatherlink.com 1.10,2013-09-01 21:40:00,
2013-09-01 16:55:00,93.9,75.0,29.82,South,182,1.0,6.0,54,0.00,,,0.00,weatherlink.com 1.10,2013-09-01 21:55:00,
2013-09-01 17:10:00,92.7,74.0,29.82,SW,225,6.0,8.0,55,0.00,,,0.00,weatherlink.com 1.10,2013-09-01 22:10:00,
2013-09-01 17:25:00,93.4,75.0,29.82,SW,226,4.0,6.0,56,0.00,,,0.00,weatherlink.com 1.10,2013-09-01 22:25:00,
2013-09-01 17:40:00,92.4,75.0,29.82,SW,222,5.0,8.0,57,0.00,,,0.00,weatherlink.com 1.10,2013-09-01 22:40:00,
2013-09-01 17:55:00,91.6,75.0,29.81,SW,229,4.0,10.0,59,0.00,,,0.00,weatherlink.com 1.10,2013-09-01 22:55:00,
2013-09-01 18:10:00,90.8,75.0,29.81,South,187,1.0,7.0,60,0.00,,,0.00,weatherlink.com 1.10,2013-09-01 23:10:00,
2013-09-01 18:25:00,89.8,75.0,29.81,West,264,3.0,6.0,62,0.00,,,0.00,weatherlink.com 1.10,2013-09-01 23:25:00,
2013-09-01 18:40:00,88.8,75.0,29.82,SW,229,2.0,8.0,63,0.00,,,0.00,weatherlink.com 1.10,2013-09-01 23:40:00,
2013-09-01 18:55:00,87.8,74.0,29.82,SW,225,3.0,7.0,64,0.00,,,0.00,weatherlink.com 1.10,2013-09-01 23:55:00,
2013-09-01 19:10:00,87.2,74.0,29.82,WSW,242,3.0,4.0,65,0.00,,,0.00,weatherlink.com 1.10,2013-09-02 00:10:00,
2013-09-01 19:25:00,86.0,73.0,29.82,South,190,0.0,4.0,66,0.00,,,0.00,weatherlink.com 1.10,2013-09-02 00:25:00,
2013-09-01 19:40:00,85.0,73.0,29.83,South,176,1.0,3.0,68,0.00,,,0.00,weatherlink.com 1.10,2013-09-02 00:40:00,
2013-09-01 19:55:00,84.2,73.0,29.83,SW,232,0.0,4.0,70,0.00,,,0.00,weatherlink.com 1.10,2013-09-02 00:55:00,
2013-09-01 20:10:00,83.4,74.0,29.84,SSW,200,0.0,2.0,72,0.00,,,0.00,weatherlink.com 1.10,2013-09-02 01:10:00,
2013-09-01 20:25:00,82.8,73.0,29.85,South,188,0.0,3.0,73,0.00,,,0.00,weatherlink.com 1.10,2013-09-02 01:25:00,
2013-09-01 20:40:00,82.1,74.0,29.85,South,188,0.0,0.0,75,0.00,,,0.00,weatherlink.com 1.10,2013-09-02 01:40:00,
2013-09-01 20:55:00,81.5,74.0,29.86,South,188,0.0,2.0,77,0.00,,,0.00,weatherlink.com 1.10,2013-09-02 01:55:00,
2013-09-01 21:10:00,81.0,74.0,29.87,South,188,0.0,2.0,79,0.00,,,0.00,weatherlink.com 1.10,2013-09-02 02:10:00,
2013-09-01 21:25:00,80.6,74.0,29.88,South,188,0.0,0.0,80,0.00,,,0.00,weatherlink.com 1.10,2013-09-02 02:25:00,
2013-09-01 21:40:00,80.0,74.0,29.87,South,188,0.0,2.0,82,0.00,,,0.00,weatherlink.com 1.10,2013-09-02 02:40:00,
2013-09-01 21:56:00,79.6,74.0,29.88,SSW,207,0.0,2.0,83,0.00,,,0.00,weatherlink.com 1.10,2013-09-02 02:56:00,
2013-09-01 22:11:00,79.4,74.0,29.88,SSW,207,0.0,2.0,84,0.00,,,0.00,weatherlink.com 1.10,2013-09-02 03:11:00,
2013-09-01 22:26:00,79.3,74.0,29.89,South,190,0.0,3.0,84,0.00,,,0.00,weatherlink.com 1.10,2013-09-02 03:26:00,
2013-09-01 22:41:00,79.0,74.0,29.88,SSW,192,1.0,3.0,85,0.00,,,0.00,weatherlink.com 1.10,2013-09-02 03:41:00,
2013-09-01 22:56:00,78.8,74.0,29.89,South,174,0.0,2.0,85,0.00,,,0.00,weatherlink.com 1.10,2013-09-02 03:56:00,
2013-09-01 23:11:00,78.5,74.0,29.88,South,181,2.0,3.0,86,0.00,,,0.00,weatherlink.com 1.10,2013-09-02 04:11:00,
2013-09-01 23:26:00,78.3,74.0,29.88,South,174,1.0,2.0,87,0.00,,,0.00,weatherlink.com 1.10,2013-09-02 04:26:00,
2013-09-01 23:41:00,78.2,74.0,29.88,South,188,0.0,2.0,87,0.00,,,0.00,weatherlink.com 1.10,2013-09-02 04:41:00,
2013-09-01 23:56:00,78.0,74.0,29.88,South,188,0.0,1.0,88,0.00,,,0.00,weatherlink.com 1.10,2013-09-02 04:56:00,